| time (UTC) | temp F | wind direction | speed knots | gust knots | rain 1hr in | rain 24hr in | rain mn in | humidity % | barometer mb |
| 20260507070604 | 35 | 9 | 0.9 | 2.6 | 0.00 | 0.02 | 0.00 | 67 | 1027.3 |
| 20260507070104 | 36 | 9 | 1.7 | 10.4 | 0.00 | 0.02 | 0.00 | 65 | 1027.3 |
| 20260507064604 | 37 | 9 | 2.6 | 4.3 | 0.00 | 0.02 | 0.00 | 60 | 1027.3 |
| 20260507063605 | 36 | 9 | 4.3 | 7.0 | 0.00 | 0.02 | 0.00 | 62 | 1027.3 |
| 20260507061605 | 36 | 10 | 7.8 | 12.2 | 0.00 | 0.02 | 0.00 | 64 | 1027.2 |
| 20260507061106 | 36 | 11 | 7.8 | 13.9 | 0.00 | 0.02 | 0.00 | 64 | 1027.2 |
| 20260507060604 | 36 | 10 | 10.4 | 13.9 | 0.00 | 0.02 | 0.00 | 63 | 1027.2 |
| 20260507060104 | 37 | 10 | 6.1 | 12.2 | 0.00 | 0.02 | 0.00 | 61 | 1027.2 |
| 20260507054605 | 37 | 10 | 8.7 | 12.2 | 0.00 | 0.03 | 0.02 | 61 | 1027.2 |
| 20260507053605 | 37 | 10 | 7.8 | 13.0 | 0.00 | 0.06 | 0.02 | 61 | 1027.3 |
| 20260507053104 | 37 | 9 | 3.5 | 13.0 | 0.00 | 0.06 | 0.02 | 62 | 1027.2 |
| 20260507051604 | 37 | 10 | 5.2 | 10.4 | 0.00 | 0.06 | 0.02 | 59 | 1027.4 |
| 20260507051104 | 38 | 10 | 6.1 | 11.3 | 0.00 | 0.06 | 0.02 | 59 | 1027.4 |
| 20260507050605 | 38 | 10 | 9.6 | 12.2 | 0.00 | 0.06 | 0.02 | 59 | 1027.4 |
| 20260507050104 | 38 | 9 | 3.5 | 7.8 | 0.00 | 0.06 | 0.02 | 60 | 1027.3 |
| 20260507044104 | 38 | 9 | 5.2 | 7.8 | 0.00 | 0.06 | 0.02 | 57 | 1027.4 |
| 20260507043604 | 38 | 9 | 4.3 | 8.7 | 0.00 | 0.06 | 0.02 | 58 | 1027.4 |
| 20260507041604 | 38 | 9 | 3.5 | 6.1 | 0.00 | 0.06 | 0.02 | 58 | 1027.5 |
| 20260507041104 | 38 | 9 | 3.5 | 5.2 | 0.00 | 0.06 | 0.02 | 59 | 1027.5 |
| 20260507040605 | 38 | 9 | 2.6 | 5.2 | 0.00 | 0.06 | 0.02 | 58 | 1027.5 |
| 20260507040104 | 39 | 9 | 2.6 | 6.1 | 0.00 | 0.06 | 0.02 | 58 | 1027.5 |
| 20260507034604 | 38 | 10 | 2.6 | 4.3 | 0.00 | 0.06 | 0.02 | 59 | 1027.4 |
| 20260507034104 | 39 | 10 | 0.0 | 2.6 | 0.00 | 0.06 | 0.02 | 60 | 1027.2 |
| 20260507033604 | 39 | 9 | 2.6 | 2.6 | 0.00 | 0.06 | 0.02 | 60 | 1027.2 |
| 20260507033104 | 39 | 9 | 1.7 | 4.3 | 0.00 | 0.06 | 0.02 | 60 | 1027.1 |
| 20260507031604 | 39 | 9 | 2.6 | 2.6 | 0.00 | 0.06 | 0.02 | 58 | 1026.7 |
| 20260507031104 | 40 | 9 | 1.7 | 2.6 | 0.00 | 0.07 | 0.02 | 56 | 1026.7 |
| 20260507030104 | 42 | 8 | 2.6 | 4.3 | 0.00 | 0.08 | 0.02 | 53 | 1026.5 |
| 20260507024604 | 43 | 15 | 1.7 | 2.6 | 0.00 | 0.11 | 0.02 | 48 | 1026.4 |
| 20260507023604 | 44 | 15 | 1.7 | 2.6 | 0.00 | 0.17 | 0.02 | 47 | 1026.4 |
| 20260507021604 | 46 | 15 | 0.9 | 2.6 | 0.00 | 0.20 | 0.02 | 42 | 1026.2 |
| 20260507021104 | 46 | 15 | 0.9 | 1.7 | 0.00 | 0.20 | 0.02 | 42 | 1026.3 |
| 20260507020104 | 46 | 15 | 1.7 | 7.8 | 0.00 | 0.20 | 0.02 | 40 | 1026.4 |
| 20260507014604 | 47 | 13 | 0.9 | 6.1 | 0.00 | 0.20 | 0.02 | 39 | 1026.4 |
| 20260507013604 | 47 | 14 | 1.7 | 10.4 | 0.00 | 0.20 | 0.02 | 38 | 1026.3 |
| 20260507013104 | 48 | 14 | 2.6 | 7.8 | 0.00 | 0.20 | 0.02 | 38 | 1026.3 |
| 20260507011604 | 48 | 15 | 0.9 | 4.3 | 0.00 | 0.20 | 0.02 | 39 | 1026.2 |
| 20260507011104 | 48 | 13 | 1.7 | 4.3 | 0.00 | 0.20 | 0.02 | 38 | 1026.2 |
| 20260507010604 | 49 | 9 | 1.7 | 5.2 | 0.00 | 0.20 | 0.02 | 37 | 1026.3 |
| 20260507010104 | 49 | 13 | 3.5 | 8.7 | 0.00 | 0.20 | 0.02 | 37 | 1026.2 |
| 20260507004604 | 49 | 14 | 5.2 | 8.7 | 0.00 | 0.20 | 0.02 | 37 | 1026.2 |
| 20260507004104 | 49 | 14 | 2.6 | 7.8 | 0.00 | 0.20 | 0.02 | 39 | 1026.1 |
| 20260507003604 | 49 | 14 | 1.7 | 5.2 | 0.00 | 0.20 | 0.02 | 37 | 1026.1 |
| 20260507001604 | 49 | 8 | 1.7 | 5.2 | 0.00 | 0.20 | 0.02 | 38 | 1025.9 |
| 20260507001103 | 49 | 13 | 3.5 | 6.1 | 0.00 | 0.20 | 0.02 | 38 | 1026.0 |
| 20260507000104 | 49 | 14 | 4.3 | 8.7 | 0.00 | 0.20 | 0.02 | 39 | 1026.0 |
| 20260506234604 | 49 | 10 | 1.7 | 8.7 | 0.00 | 0.20 | 0.02 | 40 | 1025.9 |
| 20260506234104 | 49 | 12 | 2.6 | 7.8 | 0.00 | 0.20 | 0.02 | 40 | 1025.8 |
| 20260506233604 | 49 | 14 | 2.6 | 6.1 | 0.00 | 0.20 | 0.02 | 40 | 1025.9 |
| 20260506231604 | 49 | 14 | 2.6 | 7.8 | 0.00 | 0.20 | 0.02 | 39 | 1026.0 |
| 20260506231104 | 49 | 14 | 3.5 | 10.4 | 0.00 | 0.20 | 0.02 | 40 | 1025.9 |
| 20260506230604 | 49 | 14 | 3.5 | 6.1 | 0.00 | 0.20 | 0.02 | 41 | 1025.9 |
| 20260506230104 | 49 | 13 | 1.7 | 10.4 | 0.00 | 0.20 | 0.02 | 40 | 1025.8 |
| 20260506224604 | 49 | 14 | 1.7 | 2.6 | 0.00 | 0.20 | 0.02 | 42 | 1026.0 |
| 20260506223604 | 49 | 10 | 2.6 | 4.3 | 0.00 | 0.20 | 0.02 | 40 | 1026.2 |
| 20260506223104 | 49 | 13 | 5.2 | 11.3 | 0.00 | 0.20 | 0.02 | 39 | 1026.2 |
| 20260506221605 | 48 | 10 | 4.3 | 8.7 | 0.00 | 0.20 | 0.02 | 41 | 1026.3 |
| 20260506221105 | 48 | 13 | 1.7 | 6.1 | 0.00 | 0.20 | 0.02 | 39 | 1026.3 |
| 20260506220605 | 48 | 9 | 1.7 | 6.1 | 0.00 | 0.20 | 0.02 | 39 | 1026.3 |
| 20260506220105 | 48 | 10 | 1.7 | 10.4 | 0.00 | 0.20 | 0.02 | 38 | 1026.4 |
| 20260506214606 | 47 | 9 | 4.3 | 7.8 | 0.00 | 0.20 | 0.02 | 41 | 1026.6 |
| 20260506214105 | 47 | 10 | 2.6 | 10.4 | 0.00 | 0.20 | 0.02 | 41 | 1026.9 |
| 20260506213605 | 46 | 10 | 5.2 | 8.7 | 0.00 | 0.20 | 0.02 | 42 | 1027.0 |
| 20260506213105 | 46 | 9 | 4.3 | 10.4 | 0.00 | 0.20 | 0.02 | 39 | 1027.0 |
| 20260506211605 | 46 | 9 | 1.7 | 7.8 | 0.00 | 0.21 | 0.02 | 37 | 1027.0 |
| 20260506211104 | 46 | 10 | 3.5 | 10.4 | 0.00 | 0.22 | 0.02 | 35 | 1026.9 |
| 20260506210605 | 46 | 10 | 4.3 | 10.4 | 0.00 | 0.23 | 0.02 | 36 | 1027.1 |
| 20260506210105 | 46 | 13 | 2.6 | 7.8 | 0.00 | 0.24 | 0.02 | 35 | 1027.1 |
| 20260506204605 | 46 | 10 | 3.5 | 6.1 | 0.00 | 0.28 | 0.02 | 33 | 1027.1 |
| 20260506204105 | 46 | 14 | 4.3 | 10.4 | 0.00 | 0.30 | 0.02 | 32 | 1027.0 |
| 20260506203606 | 45 | 10 | 2.6 | 8.7 | 0.00 | 0.30 | 0.02 | 35 | 1027.0 |
| 20260506201605 | 44 | 10 | 3.5 | 6.1 | 0.00 | 0.32 | 0.02 | 37 | 1026.9 |
| 20260506201105 | 43 | 12 | 5.2 | 10.4 | 0.00 | 0.32 | 0.02 | 41 | 1026.9 |
| 20260506200605 | 43 | 9 | 5.2 | 8.7 | 0.00 | 0.32 | 0.02 | 36 | 1026.9 |
| 20260506200105 | 43 | 9 | 2.6 | 7.8 | 0.00 | 0.32 | 0.02 | 39 | 1026.8 |
| 20260506194605 | 43 | 9 | 4.3 | 8.7 | 0.00 | 0.32 | 0.02 | 40 | 1026.7 |
| 20260506194105 | 44 | 9 | 0.9 | 2.6 | 0.00 | 0.32 | 0.02 | 46 | 1026.6 |
| 20260506193605 | 44 | 9 | 0.9 | 8.7 | 0.00 | 0.32 | 0.02 | 44 | 1026.7 |
| 20260506193105 | 43 | 12 | 3.5 | 10.4 | 0.00 | 0.32 | 0.02 | 52 | 1026.6 |
| 20260506191605 | 43 | 12 | 4.3 | 8.7 | 0.00 | 0.32 | 0.02 | 50 | 1026.6 |
| 20260506191105 | 43 | 10 | 2.6 | 6.1 | 0.00 | 0.32 | 0.02 | 49 | 1026.6 |
| 20260506184604 | 43 | 15 | 4.3 | 8.7 | 0.00 | 0.34 | 0.02 | 41 | 1026.5 |
| 20260506184104 | 43 | 14 | 4.3 | 11.3 | 0.00 | 0.34 | 0.02 | 45 | 1026.4 |
| 20260506183605 | 43 | 10 | 2.6 | 7.8 | 0.00 | 0.35 | 0.02 | 50 | 1026.3 |
| 20260506181605 | 42 | 14 | 5.2 | 10.4 | 0.00 | 0.38 | 0.02 | 45 | 1026.2 |
| 20260506180605 | 41 | 9 | 4.3 | 8.7 | 0.00 | 0.39 | 0.02 | 51 | 1026.1 |
| 20260506174605 | 41 | 13 | 6.1 | 12.2 | 0.00 | 0.40 | 0.02 | 53 | 1025.6 |
| 20260506174105 | 41 | 13 | 6.1 | 11.3 | 0.00 | 0.41 | 0.02 | 60 | 1025.5 |
| 20260506173105 | 39 | 13 | 4.3 | 10.4 | 0.00 | 0.41 | 0.02 | 63 | 1025.5 |
| 20260506171605 | 38 | 14 | 4.3 | 8.7 | 0.00 | 0.41 | 0.02 | 67 | 1025.4 |
| 20260506171105 | 39 | 13 | 4.3 | 11.3 | 0.00 | 0.41 | 0.02 | 71 | 1025.4 |
| 20260506170605 | 39 | 12 | 4.3 | 12.2 | 0.00 | 0.41 | 0.02 | 77 | 1025.2 |
| 20260506170105 | 38 | 12 | 5.2 | 11.3 | 0.00 | 0.41 | 0.02 | 74 | 1025.1 |
| 20260506164605 | 38 | 12 | 5.2 | 10.4 | 0.00 | 0.43 | 0.02 | 75 | 1024.8 |
| 20260506164105 | 37 | 12 | 4.3 | 10.4 | 0.00 | 0.44 | 0.02 | 74 | 1024.9 |
| 20260506163605 | 37 | 13 | 4.3 | 10.4 | 0.00 | 0.45 | 0.02 | 77 | 1024.8 |
| 20260506163105 | 36 | 13 | 4.3 | 10.4 | 0.00 | 0.45 | 0.02 | 77 | 1024.7 |
| 20260506161605 | 37 | 13 | 4.3 | 8.7 | 0.00 | 0.49 | 0.02 | 76 | 1024.6 |
| 20260506160604 | 37 | 13 | 2.6 | 10.4 | 0.00 | 0.51 | 0.02 | 77 | 1024.4 |
| 20260506160105 | 37 | 12 | 3.5 | 10.4 | 0.00 | 0.51 | 0.02 | 77 | 1024.4 |
| 20260506154604 | 36 | 13 | 3.5 | 10.4 | 0.00 | 0.51 | 0.02 | 80 | 1024.1 |
| 20260506154105 | 36 | 12 | 4.3 | 7.8 | 0.00 | 0.51 | 0.02 | 82 | 1024.1 |
| 20260506153605 | 36 | 12 | 4.3 | 7.0 | 0.00 | 0.51 | 0.02 | 79 | 1024.2 |
| 20260506153105 | 35 | 12 | 4.3 | 7.8 | 0.00 | 0.51 | 0.02 | 82 | 1024.2 |
| 20260506151605 | 34 | 12 | 1.7 | 4.3 | 0.00 | 0.51 | 0.02 | 82 | 1024.1 |
| 20260506151105 | 34 | 13 | 1.7 | 4.3 | 0.00 | 0.52 | 0.02 | 82 | 1024.0 |
| 20260506144604 | 33 | 12 | 1.7 | 7.8 | 0.00 | 0.62 | 0.02 | 81 | 1024.1 |
| 20260506144104 | 33 | 14 | 1.7 | 6.1 | 0.00 | 0.63 | 0.02 | 85 | 1024.0 |
| 20260506143105 | 33 | 12 | 1.7 | 5.2 | 0.00 | 0.66 | 0.02 | 85 | 1024.0 |
| 20260506141604 | 31 | 13 | 1.7 | 5.2 | 0.00 | 0.68 | 0.02 | 85 | 1023.8 |
| 20260506141104 | 31 | 13 | 0.9 | 4.3 | 0.00 | 0.68 | 0.02 | 86 | 1023.8 |
| 20260506140605 | 30 | 14 | 0.9 | 2.6 | 0.00 | 0.68 | 0.02 | 85 | 1023.7 |
| 20260506140105 | 30 | 13 | 1.7 | 4.3 | 0.00 | 0.68 | 0.02 | 83 | 1023.8 |
| 20260506134605 | 31 | 13 | 0.0 | 1.7 | 0.00 | 0.68 | 0.02 | 82 | 1023.7 |
| 20260506134104 | 31 | 13 | 0.9 | 2.6 | 0.00 | 0.68 | 0.02 | 82 | 1023.5 |
| 20260506133605 | 31 | 12 | 0.9 | 2.6 | 0.00 | 0.68 | 0.02 | 82 | 1023.5 |
| 20260506133104 | 31 | 13 | 0.9 | 2.6 | 0.00 | 0.68 | 0.02 | 83 | 1023.4 |
| 20260506131604 | 30 | 13 | 0.9 | 1.7 | 0.00 | 0.68 | 0.02 | 88 | 1023.1 |
| 20260506131104 | 29 | 14 | 0.9 | 1.7 | 0.00 | 0.69 | 0.02 | 88 | 1023.0 |
| 20260506130604 | 28 | 14 | 0.0 | 0.0 | 0.00 | 0.69 | 0.02 | 87 | 1022.9 |
| 20260506130105 | 28 | 14 | 0.0 | 1.7 | 0.00 | 0.70 | 0.02 | 87 | 1022.9 |
| 20260506124105 | 29 | 15 | 0.0 | 0.9 | 0.00 | 0.72 | 0.02 | 86 | 1022.2 |
| 20260506123605 | 29 | 15 | 0.9 | 2.6 | 0.00 | 0.72 | 0.02 | 86 | 1022.1 |
| 20260506123105 | 29 | 13 | 1.7 | 2.6 | 0.00 | 0.73 | 0.02 | 85 | 1022.0 |
| 20260506121605 | 30 | 13 | 0.0 | 0.9 | 0.00 | 0.76 | 0.02 | 86 | 1021.9 |
| 20260506121105 | 30 | 13 | 1.7 | 2.6 | 0.00 | 0.79 | 0.02 | 86 | 1021.9 |
| 20260506120605 | 30 | 15 | 0.0 | 1.7 | 0.00 | 0.81 | 0.02 | 85 | 1021.8 |
| 20260506120104 | 30 | 14 | 0.9 | 2.6 | 0.00 | 0.83 | 0.02 | 84 | 1021.8 |
| 20260506114605 | 31 | 9 | 0.9 | 1.7 | 0.00 | 0.93 | 0.02 | 84 | 1021.6 |
| 20260506113605 | 31 | 10 | 0.9 | 2.6 | 0.00 | 0.98 | 0.02 | 83 | 1021.4 |
| 20260506113104 | 31 | 11 | 1.7 | 2.6 | 0.00 | 0.99 | 0.02 | 85 | 1021.5 |
| 20260506111605 | 31 | 11 | 1.7 | 5.2 | 0.00 | 1.06 | 0.02 | 82 | 1021.4 |
| 20260506111104 | 31 | 10 | 1.7 | 4.3 | 0.00 | 1.06 | 0.02 | 81 | 1021.5 |
| 20260506110604 | 31 | 11 | 1.7 | 5.2 | 0.00 | 1.07 | 0.02 | 83 | 1021.3 |
| 20260506110105 | 31 | 11 | 1.7 | 5.2 | 0.00 | 1.07 | 0.02 | 84 | 1021.2 |
| 20260506104604 | 31 | 9 | 1.7 | 2.6 | 0.00 | 1.07 | 0.02 | 86 | 1021.6 |
| 20260506104104 | 31 | 11 | 0.9 | 4.3 | 0.00 | 1.07 | 0.02 | 86 | 1021.5 |
| 20260506103604 | 31 | 9 | 2.6 | 2.6 | 0.00 | 1.07 | 0.02 | 88 | 1021.6 |
| 20260506103104 | 31 | 9 | 2.6 | 5.2 | 0.00 | 1.07 | 0.02 | 88 | 1021.6 |
| 20260506101605 | 31 | 13 | 0.0 | 2.6 | 0.00 | 1.07 | 0.02 | 88 | 1021.6 |
| 20260506101105 | 31 | 13 | 1.7 | 2.6 | 0.00 | 1.07 | 0.02 | 87 | 1021.4 |
| 20260506100604 | 32 | 13 | 0.9 | 2.6 | 0.00 | 1.07 | 0.02 | 88 | 1021.3 |
| 20260506100105 | 32 | 12 | 0.9 | 6.1 | 0.00 | 1.07 | 0.02 | 88 | 1021.3 |
| 20260506094605 | 32 | 12 | 0.9 | 4.3 | 0.00 | 1.07 | 0.02 | 82 | 1020.8 |
| 20260506094104 | 32 | 9 | 1.7 | 8.7 | 0.00 | 1.07 | 0.02 | 83 | 1020.4 |
| 20260506093605 | 32 | 9 | 7.8 | 12.2 | 0.00 | 1.07 | 0.02 | 81 | 1020.0 |
| 20260506093104 | 32 | 10 | 6.1 | 10.4 | 0.00 | 1.07 | 0.02 | 81 | 1019.8 |
| 20260506091604 | 33 | 12 | 0.0 | 2.6 | 0.00 | 1.07 | 0.02 | 83 | 1019.7 |
| 20260506091105 | 34 | 10 | 0.9 | 2.6 | 0.00 | 1.07 | 0.02 | 84 | 1019.7 |
| 20260506090605 | 34 | 11 | 0.9 | 2.6 | 0.00 | 1.07 | 0.02 | 85 | 1019.5 |
| 20260506090104 | 34 | 9 | 1.7 | 5.2 | 0.00 | 1.07 | 0.02 | 82 | 1019.4 |
| 20260506084604 | 34 | 11 | 0.9 | 2.6 | 0.00 | 1.07 | 0.02 | 85 | 1019.3 |
| 20260506083604 | 33 | 9 | 2.6 | 7.8 | 0.01 | 1.07 | 0.02 | 84 | 1019.1 |
| 20260506083105 | 33 | 10 | 4.3 | 10.4 | 0.01 | 1.07 | 0.02 | 86 | 1018.9 |
| 20260506080605 | 34 | 13 | 0.9 | 4.3 | 0.02 | 1.07 | 0.02 | 93 | 1018.5 |
| 20260506080104 | 34 | 11 | 0.0 | 2.6 | 0.02 | 1.07 | 0.02 | 93 | 1018.3 |
| 20260506071605 | 36 | 5 | 0.0 | 0.0 | 0.00 | 1.05 | 0.00 | 90 | 1017.5 |
| 20260506071104 | 36 | 5 | 0.0 | 0.9 | 0.00 | 1.05 | 0.00 | 90 | 1017.5 |